Location: ActonStarParty
(42.4766°N, 71.4538°W)
Time: 20:12:02
(UTC-05:00)

Cosmos 1300 - Visible Passes

Search period start: 23 January 2017 00:00
Search period end: 02 February 2017 00:00
Orbit: 515 x 518 km, 82.5° (Epoch: 22 January)

Date Brightness Start Highest point End Pass type
(mag) Time Alt. Az. Time Alt. Az. Time Alt. Az.
23 Jan 4.8 05:46:53 10° SSE 05:50:16 31° E 05:53:40 10° NNE visible
23 Jan 2.6 17:16:30 10° N 17:20:20 72° E 17:24:09 10° SSE visible
24 Jan 5.1 05:32:19 10° SSE 05:35:30 25° E 05:38:41 10° NNE visible
25 Jan 5.4 05:17:48 10° SE 05:20:43 21° E 05:23:40 10° NE visible
25 Jan 6.2 18:24:38 10° WNW 18:25:55 11° W 18:27:11 10° WSW visible
26 Jan 5.7 05:03:21 10° SE 05:05:57 18° E 05:08:34 10° NE visible
26 Jan 6.0 18:09:10 10° NW 18:11:10 14° W 18:13:09 10° WSW visible
27 Jan 5.9 04:49:00 10° ESE 04:51:11 15° E 04:53:24 10° NE visible
27 Jan 3.3 06:23:03 10° SW 06:26:34 35° WNW 06:30:09 10° N visible
27 Jan 5.8 17:53:56 10° NW 17:56:24 17° W 17:58:52 10° SW visible
28 Jan 6.1 04:34:51 10° ESE 04:36:27 12° E 04:38:03 10° ENE visible
28 Jan 3.0 06:08:04 10° SSW 06:11:44 43° WNW 06:15:25 10° N visible
28 Jan 5.7 17:38:49 10° NW 17:41:38 20° W 17:44:28 10° SW visible
29 Jan 6.3 04:21:24 10° E 04:21:42 10° E 04:21:59 10° E visible
29 Jan 2.7 05:53:08 10° SSW 05:56:53 53° W 06:00:39 10° N visible
29 Jan 5.5 17:23:46 10° NW 17:26:52 24° W 17:29:58 10° SW visible
30 Jan 2.6 05:38:15 10° SSW 05:42:02 66° W 05:45:52 10° N visible
31 Jan 2.5 05:23:23 10° S 05:27:12 82° W 05:31:04 10° N visible
01 Feb 2.7 05:08:34 10° S 05:12:23 81° E 05:16:14 10° N visible
